Terminal Aerodrome Forecast
Issued by NWS Northern Indiana

Home | Current Version | Previous Version | Text Only | Print | Product List | Glossary Off
Versions: 1 2 3 4 5 6 7 8 9 10 11 12 13

000
FTUS43 KIWX 191100
TAFFWA
TAF
KFWA 191120Z 1912/2012 07003KT P6SM BKN020 OVC040
     FM191800 10003KT P6SM BKN040
     FM200600 00000KT 5SM BR SCT040=

USA.gov is the U.S. government's official web portal to all federal, state and local government web resources and services.